Regional Weather Roundup
Issued by NWS Sioux Falls, SD

Home | Current Version | Previous Version | Graphics & Text | Print | Product List | Glossary On
Versions: 1 2 3 4 5 6 7 8 9 10 11 12 13 14 15 16 17 18 19 20 21 22 23 24 25 26 27 28 29 30 31 32 33 34 35 36 37 38 39 40 41 42 43 44 45 46 47 48 49 50
000
ASUS43 KFSD 241802
RWRFSD

WEATHER ROUNDUP FOR SE SOUTH DAKOTA/SW MINNESOTA/NW IOWA
NATIONAL WEATHER SERVICE SIOUX FALLS SD
100 PM CDT SUN JUL 24 2016

NOTE: "FAIR" INDICATES FEW OR NO CLOUDS BELOW 12,000 FEET WITH NO
SIGNIFICANT WEATHER AND OR OBSTRUCTIONS TO VISIBILITY.


SDZ038>040-050-052>070-241900-
SOUTHEAST SOUTH DAKOTA

CITY           SKY/WX    TMP DP  RH WIND       PRES   REMARKS
BROOKINGS      PTSUNNY   76  62  62 NW12      30.02S
CHAMBERLAIN    CLOUDY    78  58  49 N7        30.10R
6HR MIN TEMP:  70; 6HR MAX TEMP:  80;

HURON          CLOUDY    75  59  57 NW10      30.06R
6HR MIN TEMP:  62; 6HR MAX TEMP:  78; 6HR PCP: TRACE;

MADISON        FAIR      73  61  64 NW10      30.04R
MITCHELL       CLOUDY    73  64  73 CALM      30.07R
6HR MIN TEMP:  65; 6HR MAX TEMP:  78; 6HR PCP:  0.01;

SIOUX FALLS    CLOUDY    79  60  52 VRB7      30.02S
6HR MIN TEMP:  69; 6HR MAX TEMP:  80;

WINNER         MOCLDY    78  53  41 CALM      30.11S
YANKTON        PTSUNNY   81  59  47 NW15      30.05R
$$

MNZ071-072-080-081-089-090-097-098-241900-
SOUTHWEST MINNESOTA

CITY           SKY/WX    TMP DP  RH WIND       PRES   REMARKS
FAIRMONT       SUNNY     79  45  29 NW13      29.95F
JACKSON        SUNNY     79  57  47 N8        30.00S
LUVERNE        MOSUNNY   79  59  50 NW7       30.02S
MARSHALL       MOSUNNY   77  63  61 NW10      29.97F
6HR MIN TEMP:  67; 6HR MAX TEMP:  77;

MONTEVIDEO     MOSUNNY   79  63  57 N8        29.96F
REDWOOD FALLS  MOSUNNY   79  60  52 W16       29.96R
TRACY          CLOUDY    78  66  66 NW9       29.99F
WINDOM         SUNNY     77  61  57 NW10      29.99R
WORTHINGTON    SUNNY     78  62  57 NW6       30.02R
$$

IAZ001>003-012>014-020>022-031-032-NEZ013-014-SDZ071-241900-
NORTHWEST IOWA

CITY           SKY/WX    TMP DP  RH WIND       PRES   REMARKS
CHEROKEE       CLOUDY    81  61  49 N9        29.99S
ESTHERVILLE    MOSUNNY   79  65  62 NW10      29.98S
LE MARS        CLOUDY    84  61  45 NW7       30.01S
SHELDON        RAIN      72  68  88 N5G12     29.99S
SIOUX CITY     CLOUDY    87  59  38 N7        29.99F
6HR MIN TEMP:  72; 6HR MAX TEMP:  88;

SPENCER        SUNNY     83  62  49 NW10      29.99S
6HR MIN TEMP:  69; 6HR MAX TEMP:  83;

STORM LAKE     PTSUNNY   81  64  57 VRB5      30.00F
$$

ABBREVIATIONS USED IN REMARKS
   TC - TEMPERATURE IN CELSIUS
  WCI - WIND CHILL INDEX
   HX - HEAT INDEX
  VSB - VISIBILITY





USA.gov is the U.S. government's official web portal to all federal, state and local government web resources and services.